Regional Weather Roundup
Issued by NWS

Home | Current Version | Previous Version | Text Only | Print | Product List | Glossary Off
Versions: 1 2 3 4 5 6 7 8 9 10 11 12 13 14 15 16 17 18 19 20 21 22 23 24 25 26 27 28 29 30 31 32 33 34 35 36 37 38 39 40 41 42 43 44 45 46 47 48 49 50

986
ASUS43 KMPX 270210
RWRMN
WEATHER ROUNDUP FOR MINNESOTA
NATIONAL WEATHER SERVICE TWIN CITIES/CHANHASSEN MN
900 PM CDT WED APR 26 2017


NOTE: "FAIR" INDICATES FEW OR NO CLOUDS BELOW 12,000 FEET WITH NO
SIGNIFICANT WEATHER AND/OR OBSTRUCTIONS TO VISIBILITY. N/A MEANS
CURRENT SKY AND/OR WEATHER CONDITIONS ARE NOT AVAILABLE.

MNZ060>063-068>070-270300-
   Twin Cities Metro

CITY           SKY/WX    TMP DP  RH WIND       PRES   REMARKS
TWIN CITIES    CLOUDY    38  31  76 N12       29.59R
ST PAUL        CLOUDY    38  32  79 N10       29.60R
CRYSTAL        CLOUDY    36  31  82 N8        29.60R
BLAINE         CLOUDY    37  37 100 N9        29.59R
LAKEVILLE      CLOUDY    36  34  93 NW12      29.58R
EDEN PRAIRIE   CLOUDY    37  32  82 NW10      29.59R
SOUTH ST PAUL  CLOUDY    38  33  79 N6        29.58R
LAKE ELMO      CLOUDY    36  34  93 N5        29.59R
$$
MNZ001>005-007-008-013>017-022>024-027-028-270300-
   Northwest Minnesota

CITY           SKY/WX    TMP DP  RH WIND       PRES   REMARKS
BEMIDJI        LGT SNOW  26  24  93 N10       29.67R WCI  16
HALLOCK        FLURRIES  32  28  86 NE10      29.80S WCI  24
ROSEAU         LGT SNOW  30  27  86 NE21G28   29.76F WCI  17
WARROAD        LGT SNOW  30  27  86 NE21G30   29.76F WCI  17
THIEF RVR FALL FLURRIES  28  27  93 NE13      29.74R WCI  18
CROOKSTON      FLURRIES  28  28 100 N12       29.76S WCI  18
FOSSTON        LGT SNOW  25  23  93 N13       29.70R WCI  13
DETROIT LAKES  CLOUDY    30  28  93 N9        29.67R WCI  22
MOORHEAD       HVY RAIN  28  27  93 N7        29.73R WCI  21
PARK RAPIDS    LGT SNOW  28  23  81 N7        29.64R WCI  21
MAHNOMEN       LGT SNOW  27  25  93 N5        29.68S WCI  22
$$
MNZ006-009>011-018-025>026-270300-
   North Central Minnesota

CITY           SKY/WX    TMP DP  RH WIND       PRES   REMARKS
BAUDETTE       LGT SNOW  27  21  78 NE14      29.73S WCI  16
FLAG ISLAND    FLURRIES  30  21  69 NE25G33   29.78F WCI  16
INTL FALLS     CLOUDY    25  17  72 NE15G25   29.72R WCI  13
WASKISH        CLOUDY    27  21  80 NE10G22   29.71R WCI  17
BIG FORK       CLOUDY    27  19  74 NE10G16   29.67R WCI  17
LONGVILLE      LGT SNOW  27  25  93 N5        29.64R WCI  21
GRAND RAPIDS   CLOUDY    27  22  81 NE8       29.66R WCI  19
CRANE LAKE     CLOUDY    23  18  80 NE6       29.72R WCI  16
ORR            CLOUDY    25  18  74 N7        29.66R WCI  17
COOK           CLOUDY    25  18  74 NE6       29.67R WCI  18
WALKER         FLURRIES  26  22  84 N9        29.65R WCI  17
$$
MNZ012-019>021-037-270300-
   Northeast Minnesota

CITY           SKY/WX    TMP DP  RH WIND       PRES   REMARKS
DULUTH         CLOUDY    28  24  85 N14       29.59S WCI  17
ELY            CLOUDY    21  18  86 N5G16     29.64S WCI  15
HIBBING        CLOUDY    25  20  81 N7        29.64R WCI  17
EVELETH        CLOUDY    25  19  78 NE8       29.64S WCI  16
DULUTH HARBOR  CLOUDY    32  30  93 N17       29.62F WCI  21
TWO HARBORS    CLOUDY    28  25  86 N9        29.61R WCI  20
SILVER BAY     CLOUDY    27  23  86 N6G16     29.61R WCI  20
GRAND MARAIS     N/A     25  20  81 N10G23    29.62R WCI  15
G MARAIS ARPRT CLOUDY    18  12  79 N5        29.56S HAZE    WCI  11
$$
MNZ029>031-032-039>041-046>048-054>057-064-270300-
   West Central Minnesota

CITY           SKY/WX    TMP DP  RH WIND       PRES   REMARKS
FERGUS FALLS   CLOUDY    30  27  86 N9G18     29.68S WCI  22
WHEATON        CLOUDY    30  27  86 NW15      29.71S WCI  19
MORRIS         CLOUDY    30  28  93 NW15      29.65S WCI  19
ALEXANDRIA     CLOUDY    31  26  82 N9        29.64R WCI  23
ELBOW LAKE     CLOUDY    31  28  90 N12       29.67R WCI  21
WADENA         MIX PCPN  27  27 100 N3        29.64R
GLENWOOD       CLOUDY    30  27  86 N8        29.64R WCI  23
APPLETON       CLOUDY    32  27  80 NW12      29.67R WCI  23
BENSON         CLOUDY    34  27  75 N12       29.67R WCI  25
ORTONVILLE     CLOUDY    28  25  86 NW15G21   29.68S WCI  17
MADISON        CLOUDY    34  28  80 NW15      29.68R WCI  24
WILLMAR        CLOUDY    34  30  86 N12       29.65R WCI  25
$$
MNZ033>034-036-042>043-049>051-058-059-270300-
   Central Minnesota

CITY           SKY/WX    TMP DP  RH WIND       PRES   REMARKS
ST CLOUD       CLOUDY    32  31  96 N8        29.62R FOG     WCI  25
SAUK CENTRE    CLOUDY    30  28  90 N8        29.64R WCI  22
PAYNESVILLE    CLOUDY    32  32 100 N7        29.64R WCI  25
AITKIN         CLOUDY    32  27  80 N7        29.61S WCI  26
PINE RIVER     LGT SNOW  28  27  93 N7        29.68R WCI  21
BRAINERD       LGT SNOW  30  27  88 N12       29.63S FOG     WCI  20
STAPLES        LGT SNOW  27  27 100 N6        29.64R WCI  20
LONG PRAIRIE   LGT SNOW  30  28  93 CALM      29.64R
LITTLE FALLS   LGT SNOW  30  28  93 N3        29.63S
LITCHFIELD     CLOUDY    34  30  86 N8        29.63R WCI  27
BUFFALO        CLOUDY    33  31  94 NW7       29.62R FOG     WCI  27
MAPLE LAKE     CLOUDY    33  32  95 NW12      29.62R WCI  25
HUTCHINSON     CLOUDY    35  32  90 NW9       29.63R WCI  27
$$
MNZ037-044-045-052-053-270300-
   East Central Minnesota

CITY           SKY/WX    TMP DP  RH WIND       PRES   REMARKS
PRINCETON      CLOUDY    36  32  87 NW9       29.61S
MORA           CLOUDY    32  30  93 N6        29.62S WCI  26
CAMBRIDGE      CLOUDY    36  32  87 N5        29.58R
RUSH CITY      CLOUDY    34  32  93 N8        29.59R WCI  27
MOOSE LAKE     CLOUDY    32  28  86 N6        29.59S WCI  26
HINCKLEY       CLOUDY    32  32 100 N8        29.60S WCI  25
CLOQUET        CLOUDY    30  27  86 N7        29.60S WCI  23
MCGREGOR       CLOUDY    32  28  86 N5        29.63R WCI  27
$$
MNZ071>073-080-081-089-090-097-098-270300-
   Southwest Minnesota

CITY           SKY/WX    TMP DP  RH WIND       PRES   REMARKS
MONTEVIDEO     CLOUDY    30  28  93 N15       29.66R WCI  19
GRANITE FALLS  CLOUDY    33  30  91 NW13      29.68R WCI  23
CANBY          CLOUDY    32  28  86 W14G21    29.69R WCI  22
MARSHALL       CLOUDY    30  27  88 NW18      29.67R WCI  18
REDWOOD FALLS  CLOUDY    33  28  81 NW10      29.65R WCI  25
OLIVIA         CLOUDY    34  32  93 NW8       29.64R WCI  27
PIPESTONE      CLOUDY    30  25  80 N10       29.64S WCI  21
WINDOM         PTCLDY    30  28  93 NW20      29.64S WCI  18
WORTHINGTON    CLOUDY    31  28  89 NW17      29.65R WCI  19
JACKSON        CLOUDY    32  30  93 NW15G22   29.63S WCI  22
TRACY          CLOUDY    31  29  91 N14G20    29.66R WCI  21
SLAYTON        CLOUDY    29  26  89 NW14G20   29.66R WCI  19
$$
MNZ065>067-074>077-082>085-091>093-270300-
   South Central Minnesota

CITY           SKY/WX    TMP DP  RH WIND       PRES   REMARKS
MANKATO        CLOUDY    36  32  85 NW13      29.61R
NEW ULM        CLOUDY    36  34  93 NW10      29.62S
ST JAMES       CLOUDY    34  34 100 W18       29.63S FOG     WCI  23
FAIRMONT       CLOUDY    34  32  93 NW16      29.62R WCI  23
GLENCOE        CLOUDY    35  34  95 NW9       29.61R WCI  28
FARIBAULT      CLOUDY    37  34  87 NW9       29.59R
OWATONNA       CLOUDY    37  32  81 NW15      29.58R
WASECA         CLOUDY    36  32  87 NW9       29.60R
ALBERT LEA     CLOUDY    36  32  87 NW10      29.57S
$$
MNZ078>079-086>088-094>096-270300-
   Southeast Minnesota

CITY           SKY/WX    TMP DP  RH WIND       PRES   REMARKS
ROCHESTER      CLOUDY    37  36  96 NW9       29.55R
RED WING       DRIZZLE   39  34  81 NW7       29.56R
STANTON        CLOUDY    40  34  80 NW10      29.57R
DODGE CENTER   CLOUDY    37  36  93 NW13      29.56R
WINONA         CLOUDY    41  37  87 NW8       29.55R FOG
AUSTIN         CLOUDY    37  34  87 NW14      29.56S
PRESTON        CLOUDY    38  35  89 NW10      29.55R
$$
ABBREVIATIONS USED IN REMARKS
   TC - TEMPERATURES IN CELSIUS
  WCI - WIND CHILL INDEX
   HX - HEAT INDEX
  VSB - VISIBILITY
$$




USA.gov is the U.S. government's official web portal to all federal, state and local government web resources and services.